User: anonymous   Login
Location: Unspecified
(0.0000°N, 0.0000°E)
Time: 01:53:54
(UTC+02:00)
Language:

Cosmos 1626 Rocket - Orbit

View from above orbital plane
View from above orbital plane
View from above satellite
View from above satellite

Ground track
Ground track

The orbit data is extracted from the following two-line orbital elements,

1 15495U 85009B   16271.90888090  .00000160  00000-0  16319-4 0  9996
2 15495  82.5227  73.1297 0021588 113.7988 246.5493 14.83729251711073
Epoch (UTC): 27 September 2016 21:48:47
Eccentricity: 0.0021588
inclination: 82.5227°
perigee height: 602 km
apogee height: 632 km
right ascension of ascending node: 73.1297°
argument of perigee: 113.7988°
revolutions per day: 14.83729251
mean anomaly at epoch: 246.5493°
orbit number at epoch: 71107

The dashed part of the orbit path shows where the satellite is in the earth's shadow,  

DLR